Location: Brantley
(31.5822°N, 86.2569°W)
Time: 22:03:30
(UTC+00:00)

Explorer 11/Cluster Stage 4 - All Passes

Search period start: 18 February 2026 00:00
Search period end: 28 February 2026 00:00
Orbit: 463 x 1177 km, 28.8° (Epoch: 18 February)

Date Brightness Start Highest point End Pass type
(mag) Time Alt. Az. Time Alt. Az. Time Alt. Az.
18 Feb - 16:22:04 10° S 16:24:09 13° SSE 16:26:05 10° SE daylight
18 Feb - 18:07:20 10° SW 18:11:18 32° SSE 18:14:45 10° ESE daylight
18 Feb - 19:54:34 10° WSW 19:58:22 54° S 20:01:54 10° E daylight
18 Feb - 21:41:58 10° W 21:45:24 42° S 21:48:53 10° ESE daylight
18 Feb - 23:29:53 10° WSW 23:32:19 17° SSW 23:34:55 10° SSE daylight
19 Feb - 15:57:13 10° S 15:59:58 14° SSE 16:02:29 10° SE daylight
19 Feb - 17:42:54 10° SW 17:47:11 34° SSE 17:50:50 10° E daylight
19 Feb - 19:30:18 10° WSW 19:34:19 56° S 19:37:54 10° E daylight
19 Feb - 21:17:51 10° W 21:21:21 41° S 21:24:45 10° ESE daylight
19 Feb - 23:05:58 10° WSW 23:08:13 16° SSW 23:10:34 10° SSE daylight
20 Feb - 15:32:23 10° SSW 15:35:45 16° SSE 15:38:45 10° ESE daylight
20 Feb - 17:18:24 10° SW 17:23:02 37° SSE 17:26:54 10° E daylight
20 Feb - 19:05:58 10° WSW 19:10:13 57° S 19:13:55 10° E daylight
20 Feb - 20:53:41 10° W 20:57:17 41° SSW 21:00:41 10° ESE daylight
20 Feb - 22:42:00 10° WSW 22:44:06 15° SSW 22:46:15 10° SSE daylight
21 Feb - 15:07:34 10° SSW 15:11:29 18° SSE 15:14:56 10° ESE daylight
21 Feb - 16:53:51 10° SW 16:58:51 39° SSE 17:02:58 10° E daylight
21 Feb - 18:41:35 10° WSW 18:46:07 59° S 18:49:56 10° E daylight
21 Feb - 20:29:27 10° W 20:33:12 41° SSW 20:36:38 10° ESE daylight
21 Feb - 22:17:59 10° WSW 22:20:00 14° SSW 22:22:01 10° S daylight
22 Feb - 14:42:46 10° SSW 14:47:10 20° SSE 14:51:03 10° ESE daylight
22 Feb - 16:29:16 10° SW 16:34:37 42° SSE 16:39:01 10° E daylight
22 Feb - 18:17:08 10° WSW 18:21:58 61° S 18:25:58 10° E daylight
22 Feb - 20:05:09 10° W 20:09:06 42° SSW 20:12:36 10° ESE daylight
22 Feb - 21:53:52 10° WSW 21:55:52 14° SSW 21:57:49 10° S daylight
23 Feb - 14:17:57 10° SSW 14:22:49 21° SSE 14:27:06 10° ESE daylight
23 Feb - 16:04:37 10° WSW 16:10:21 44° SSE 16:15:02 10° E daylight
23 Feb - 17:52:37 10° W 17:57:47 62° S 18:01:59 10° E daylight
23 Feb - 19:40:46 10° W 19:44:58 42° SSW 19:48:35 10° ESE daylight
23 Feb - 21:29:39 10° WSW 21:31:43 14° SSW 21:33:42 10° S daylight
24 Feb - 13:53:09 10° SSW 13:58:26 23° SSE 14:03:05 10° ESE daylight
24 Feb - 15:39:57 10° WSW 15:46:01 47° SSE 15:51:00 10° E daylight
24 Feb - 17:28:03 10° W 17:33:33 64° S 17:38:00 10° E daylight
24 Feb - 19:16:20 10° W 19:20:49 43° SSW 19:24:35 10° ESE daylight
24 Feb - 21:05:22 10° WSW 21:07:33 14° SSW 21:09:38 10° S daylight
25 Feb - 13:28:20 10° SSW 13:34:00 25° SSE 13:39:00 10° ESE daylight
25 Feb - 15:15:14 10° WSW 15:21:40 49° SSE 15:26:56 10° E daylight
25 Feb - 17:03:26 10° W 17:09:17 65° S 17:13:59 10° E daylight
25 Feb - 18:51:49 10° W 18:56:36 45° SSW 19:00:34 10° ESE daylight
25 Feb - 20:40:59 10° WSW 20:43:22 15° SSW 20:45:36 10° S daylight
26 Feb - 13:03:33 10° SSW 13:09:31 26° SSE 13:14:51 10° ESE daylight
26 Feb - 14:50:30 10° WSW 14:57:15 51° SSE 15:02:50 10° E daylight
26 Feb - 16:38:46 10° W 16:44:58 67° S 16:49:56 10° E daylight
26 Feb - 18:27:16 10° W 18:32:22 46° SSW 18:36:33 10° ESE daylight
26 Feb - 20:16:30 10° WSW 20:19:09 16° SSW 20:21:35 10° S daylight
27 Feb - 12:38:46 10° SSW 12:44:59 28° SSE 12:50:38 10° E daylight
27 Feb - 14:25:46 10° WSW 14:32:47 53° SSE 14:38:41 10° E daylight
27 Feb - 16:14:05 10° W 16:20:36 68° S 16:25:52 10° E daylight
27 Feb - 18:02:39 10° W 18:08:05 47° SSW 18:12:31 10° ESE daylight
27 Feb - 19:51:58 10° WSW 19:54:55 16° SSW 19:57:35 10° S daylight
